Kalaeloa, HI

12:46 AM HST on May 28, 2017 (GMT -1000)
Kalaeloa (John Rodgers Field)

Weather History for PHJR - October, 2012

Change the Weather History Date:

Sunday, October 21, 2012

  Actual Average (PHHI) Record (PHHI)
Temperature  
Mean Temperature 76 °F -  
Max Temperature 84 °F 80 °F 86 °F (2004)
Min Temperature 68 °F 67 °F 61 °F (2007)
Cooling Degree Days 11    
Growing Degree Days 26 (Base 50)    
Moisture  
Dew Point 64 °F    
Average Humidity 66    
Maximum Humidity 84    
Minimum Humidity 47    
Precipitation  
Precipitation 0.00 in - - ()
Sea Level Pressure  
Sea Level Pressure 29.99 in    
Wind  
Wind Speed 5 mph (East)    
Max Wind Speed 15 mph    
Max Gust Speed 22 mph    
Visibility 10 miles    
Events      
Averages and records for this station are not official NWS values.
T = Trace of Precipitation, MM = Missing Value Source: NWS Daily Summary

Daily Weather History Graph

Daily Weather History Graph

Search for Another Location

Airport or City:

Trip Planner

Search our weather history database for the weather conditions in past years. The results will help you decide how hot, cold, wet, or windy it might be!

Date:

Astronomy

Oct. 21, 2012 Rise Set
Actual Time 6:30 AM HST 6:02 PM HST
Civil Twilight 6:07 AM HST 6:25 PM HST
Nautical Twilight 5:41 AM HST 6:51 PM HST
Astronomical Twilight 5:15 AM HST 7:17 PM HST
Moon 12:46 PM HST (10/21) No Moon Set
Length of Visible Light 12h 17m
Length of Day
11h 32m
Waxing Crescent, 47% of the Moon is Illuminated
Oct 21
Waxing Crescent
Oct 21
First Quarter
Oct 29
Full
Nov 6
Last Quarter
Nov 13
New

Hourly Weather History & Observations

Time (HST) Temp. Heat Index Dew Point Humidity Pressure Visibility Wind Dir Wind Speed Gust Speed Precip Events Conditions
12:53 AM 73.0 °F - 66.0 °F 79% 30.02 in 10.0 mi ENE 4.6 mph - N/A   Clear
1:53 AM 72.0 °F - 64.9 °F 78% 30.00 in 10.0 mi Calm Calm - N/A   Clear
2:53 AM 69.1 °F - 63.0 °F 81% 29.99 in 10.0 mi Calm Calm - N/A   Clear
3:53 AM 68.0 °F - 63.0 °F 84% 29.99 in 10.0 mi Calm Calm - N/A   Partly Cloudy
4:53 AM 70.0 °F - 64.0 °F 81% 29.98 in 10.0 mi Variable 3.5 mph - N/A   Scattered Clouds
5:53 AM 69.1 °F - 64.0 °F 84% 29.99 in 10.0 mi Calm Calm - N/A   Partly Cloudy
6:53 AM 70.0 °F - 64.9 °F 84% 30.00 in 10.0 mi ENE 4.6 mph - N/A   Clear
7:53 AM 75.9 °F - 64.9 °F 69% 30.01 in 10.0 mi East 5.8 mph - N/A   Partly Cloudy
8:07 AM 78.8 °F - 64.4 °F 61% 29.99 in 10.0 mi ENE 6.9 mph - N/A   Mostly Cloudy
8:23 AM 78.8 °F - 64.4 °F 61% 29.99 in 10.0 mi ENE 8.1 mph - N/A   Mostly Cloudy
8:53 AM 80.1 °F 81.9 °F 64.9 °F 60% 30.02 in 10.0 mi East 9.2 mph - N/A   Partly Cloudy
9:53 AM 82.0 °F 83.4 °F 64.0 °F 54% 30.02 in 10.0 mi Variable 6.9 mph - N/A   Scattered Clouds
10:53 AM 84.0 °F 84.5 °F 62.1 °F 47% 30.01 in 10.0 mi East 15.0 mph 21.9 mph N/A   Scattered Clouds
11:53 AM 82.9 °F 84.4 °F 64.0 °F 53% 29.99 in 10.0 mi East 9.2 mph 20.7 mph N/A   Mostly Cloudy
12:53 PM 84.9 °F 87.6 °F 66.9 °F 55% 29.97 in 10.0 mi ESE 9.2 mph 21.9 mph N/A   Mostly Cloudy
1:53 PM 84.0 °F 86.5 °F 66.9 °F 56% 29.96 in 10.0 mi ESE 9.2 mph 19.6 mph N/A   Scattered Clouds
2:53 PM 82.9 °F 84.0 °F 63.0 °F 51% 29.95 in 10.0 mi East 9.2 mph - N/A   Mostly Cloudy
3:53 PM 84.0 °F 84.5 °F 62.1 °F 47% 29.95 in 10.0 mi East 9.2 mph - N/A   Clear
4:53 PM 80.1 °F 81.5 °F 63.0 °F 56% 29.96 in 10.0 mi East 9.2 mph - N/A   Partly Cloudy
5:53 PM 78.1 °F - 63.0 °F 60% 29.97 in 10.0 mi ENE 9.2 mph - N/A   Clear
6:53 PM 75.9 °F - 64.0 °F 67% 29.99 in 10.0 mi ENE 6.9 mph - N/A   Clear
7:53 PM 75.9 °F - 64.0 °F 67% 30.00 in 10.0 mi Variable 6.9 mph - N/A   Clear
8:53 PM 75.0 °F - 64.0 °F 69% 30.02 in 10.0 mi ENE 6.9 mph - N/A   Clear
9:53 PM 75.0 °F - 64.9 °F 71% 30.02 in 10.0 mi East 8.1 mph - N/A   Clear
10:53 PM 75.0 °F - 64.9 °F 71% 30.02 in 10.0 mi ENE 8.1 mph - N/A   Clear
11:53 PM 75.0 °F - 64.0 °F 69% 30.02 in 10.0 mi East 8.1 mph - N/A   Clear